Flag for U.S.A. Weather past 2 weeks in Victorville, California, U.S.A.

Now
55 °F

Clear.


Feels Like: 54 °F
Forecast: 50 / 78 °F
Wind: 6 mph from Southwest

Location: George Air Force Base / Victorvi

Current Time: Oct 21, 2014 at 3:33:46 AM

Latest Report: Oct 21, 2014 at 3:15 AM


Visibility: 10 mi

Pressure: 29.98 "Hg

Humidity: 77%

Dew point: 48 °F

Location of VictorvilleLocation

Historic Weather in Victorville — Graph

°F

Victorville temperature yesterday

Maximum temperature yesterday: 84 °F (at 12:55 PM)
Minimum temperature yesterday: 55 °F (at 4:15 AM)
Average temperature yesterday: 69 °F

Past Weeks' High & Low Weather Summary

 TemperatureHumidityPressure
High91 °F (Oct 6, 1:35 PM)94% (Oct 16, 2:55 AM)30.18 "Hg (Oct 16, 2:55 AM)
Low45 °F (Oct 17, 6:35 AM)4% (Oct 12, 4:55 PM)29.88 "Hg (Oct 8, 5:15 PM)
Average68 °F33%29.99 "Hg
* Reported Oct 6 2:15 AM — Oct 21 2:15 AM, Victorville, Weather by CustomWeather, © 2014

Note: Actual official high and low records may vary slightly from our data, if they occured in-between our weather recording intervals... More about our weather records

Advertising

Victorville weather history for previous 24 hours

 ConditionsComfort  
Time TempWeatherWind HumidityBarometerVisibility
2:15 AM
Oct 21
57 °FClear.10 mph67%29.99 "Hg10 mi
1:55 AM57 °FClear.10 mph63%29.99 "Hg10 mi
1:35 AM57 °FClear.8 mph63%29.99 "Hg10 mi
1:15 AM59 °FClear.6 mph59%29.99 "Hg10 mi
12:55 AM61 °FClear.7 mph55%29.98 "Hg10 mi
12:15 AM61 °FClear.6 mph55%29.98 "Hg10 mi
11:55 PM
Oct 20
61 °FClear.No wind55%29.98 "Hg10 mi
11:15 PM63 °FClear.8 mph52%29.98 "Hg10 mi
10:55 PM64 °FClear.7 mph49%29.98 "Hg10 mi
10:35 PM63 °FClear.6 mph56%29.98 "Hg10 mi
10:15 PM63 °FClear.No wind56%29.98 "Hg10 mi
9:55 PM64 °FClear.6 mph49%29.98 "Hg10 mi
9:35 PM64 °FClear.5 mph49%29.97 "Hg10 mi
9:15 PM66 °FClear.6 mph49%29.97 "Hg10 mi
8:55 PM68 °FClear.5 mph43%29.96 "Hg10 mi
8:15 PM70 °FClear.9 mph38%29.95 "Hg10 mi
7:55 PM72 °FClear.5 mph36%29.94 "Hg10 mi
7:35 PM70 °FClear.No wind40%29.94 "Hg10 mi
7:15 PM72 °FClear.6 mph38%29.93 "Hg10 mi
6:55 PM73 °FSunny.6 mph33%29.92 "Hg10 mi
6:35 PM73 °FSunny.12 mph31%29.91 "Hg10 mi
6:15 PM75 °FSunny.13 mph27%29.91 "Hg10 mi
5:55 PM75 °FSunny.16 mph27%29.90 "Hg10 mi
5:35 PM79 °FSunny.14 mph24%29.90 "Hg10 mi
5:15 PM79 °FSunny.17 mph23%29.90 "Hg10 mi
4:55 PM79 °FSunny.15 mph21%29.90 "Hg10 mi
4:35 PM81 °FSunny.16 mph18%29.90 "Hg10 mi
4:15 PM82 °FSunny.17 mph17%29.90 "Hg10 mi
3:55 PM82 °FSunny.18 mph17%29.90 "Hg10 mi
3:35 PM82 °FSunny.20 mph19%29.90 "Hg10 mi
3:15 PM84 °FSunny.17 mph16%29.90 "Hg10 mi
2:55 PM82 °FSunny.15 mph19%29.91 "Hg10 mi
2:15 PM82 °FScattered clouds.13 mph17%29.91 "Hg10 mi
1:55 PM82 °FScattered clouds.7 mph17%29.92 "Hg10 mi
1:35 PM84 °FSunny.5 mph16%29.92 "Hg10 mi
1:15 PM82 °FSunny.3 mph17%29.93 "Hg10 mi
12:55 PM84 °FSunny.9 mph16%29.94 "Hg10 mi
12:35 PM81 °FSunny.3 mph23%29.95 "Hg10 mi
12:15 PM81 °FSunny.3 mph23%29.95 "Hg10 mi
11:55 AM81 °FSunny.No wind23%29.96 "Hg10 mi
11:35 AM81 °FSunny.3 mph24%29.97 "Hg10 mi
11:15 AM79 °FSunny.No wind26%29.97 "Hg10 mi
10:55 AM79 °FSunny.No wind26%29.98 "Hg10 mi
10:35 AM77 °FSunny.No wind28%29.98 "Hg10 mi
10:15 AM73 °FSunny.3 mph31%29.98 "Hg10 mi
9:55 AM72 °FSunny.6 mph33%29.99 "Hg10 mi
9:35 AM72 °FSunny.5 mph36%29.98 "Hg10 mi
9:15 AM68 °FSunny.5 mph40%29.98 "Hg10 mi
8:55 AM66 °FSunny.5 mph43%29.99 "Hg10 mi
8:35 AM64 °FSunny.7 mph46%29.98 "Hg10 mi
8:15 AM63 °FSunny.7 mph49%29.98 "Hg10 mi
7:55 AM59 °FClear.3 mph55%29.97 "Hg7 mi
7:35 AM59 °FClear.No wind55%29.96 "Hg10 mi
7:15 AM57 °FClear.6 mph63%29.96 "Hg10 mi
6:55 AM57 °FClear.3 mph63%29.96 "Hg10 mi
6:35 AM57 °FClear.No wind63%29.96 "Hg10 mi
6:15 AM57 °FClear.No wind63%29.96 "Hg10 mi
5:55 AM57 °FClear.No wind67%29.96 "Hg10 mi
5:35 AM57 °FClear.No wind63%29.95 "Hg10 mi
5:15 AM57 °FClear.9 mph67%29.95 "Hg10 mi
4:55 AM55 °FClear.7 mph67%29.94 "Hg10 mi
4:35 AM55 °FClear.7 mph72%29.94 "Hg10 mi
4:15 AM55 °FClear.7 mph72%29.94 "Hg10 mi
3:55 AM57 °FClear.6 mph67%29.94 "Hg10 mi
3:35 AM57 °FClear.7 mph67%29.94 "Hg10 mi
3:15 AM59 °FClear.6 mph63%29.94 "Hg10 mi
Weather by CustomWeather, © 2014

See weather overviewHow to use our weather pages